New Bedford, MA

5:57 PM EDT on May 26, 2017 (GMT -0400)
New Bedford Regional

Weather History for KEWB - December, 2011

Change the Weather History Date:

Saturday, December 24, 2011

  Actual Average Record
Temperature  
Mean Temperature 26 °F -  
Max Temperature 34 °F 39 °F 66 °F (2015)
Min Temperature 19 °F 25 °F 2 °F (1989)
Degree Days  
Heating Degree Days 38    
Moisture  
Dew Point 18 °F    
Average Humidity 71    
Maximum Humidity 93    
Minimum Humidity 54    
Precipitation  
Precipitation 0.00 in - - ()
Sea Level Pressure  
Sea Level Pressure 30.36 in    
Wind  
Wind Speed 4 mph (North)    
Max Wind Speed 8 mph    
Max Gust Speed 16 mph    
Visibility 10 miles    
Events      
Averages and records for this station are not official NWS values.
T = Trace of Precipitation, MM = Missing Value Source: NWS Daily Summary

Daily Weather History Graph

Daily Weather History Graph

Search for Another Location

Airport or City:

Trip Planner

Search our weather history database for the weather conditions in past years. The results will help you decide how hot, cold, wet, or windy it might be!

Date:

Astronomy

Dec. 24, 2011 Rise Set
Actual Time 7:08 AM EST 4:18 PM EST
Civil Twilight 6:37 AM EST 4:49 PM EST
Nautical Twilight 6:02 AM EST 5:24 PM EST
Astronomical Twilight 5:28 AM EST 5:58 PM EST
Moon 6:54 AM EST (12/24) 4:27 PM EST (12/24)
Length of Visible Light 10h 12m
Length of Day
9h 09m
Waning Crescent, 0% of the Moon is Illuminated
Dec 24
Waning Crescent
Dec 24
New
Jan 1
First Quarter
Jan 9
Full
Jan 16
Last Quarter

Hourly Weather History & Observations

Time (EST) Temp. Windchill Dew Point Humidity Pressure Visibility Wind Dir Wind Speed Gust Speed Precip Events Conditions
12:53 AM 30.9 °F 25.2 °F 23.0 °F 72% 30.16 in 10.0 mi North 5.8 mph - N/A   Clear
1:53 AM 30.0 °F 25.2 °F 24.1 °F 79% 30.19 in 10.0 mi North 4.6 mph - N/A   Clear
2:53 AM 30.0 °F 25.2 °F 23.0 °F 75% 30.21 in 10.0 mi North 4.6 mph - N/A   Clear
3:53 AM 28.0 °F - 21.9 °F 78% 30.22 in 10.0 mi Calm Calm - N/A   Clear
4:53 AM 27.0 °F 23.0 °F 21.0 °F 78% 30.25 in 10.0 mi North 3.5 mph - N/A   Clear
5:53 AM 27.0 °F - 19.9 °F 75% 30.27 in 10.0 mi Calm Calm - N/A   Clear
6:53 AM 27.0 °F 21.6 °F 17.1 °F 66% 30.30 in 10.0 mi North 4.6 mph - N/A   Clear
7:53 AM 26.1 °F 18.4 °F 16.0 °F 66% 30.33 in 10.0 mi NNW 6.9 mph - N/A   Partly Cloudy
8:53 AM 28.0 °F 20.8 °F 14.0 °F 56% 30.35 in 10.0 mi North 6.9 mph - N/A   Scattered Clouds
9:53 AM 28.9 °F 21.1 °F 16.0 °F 58% 30.38 in 10.0 mi North 8.1 mph - N/A   Overcast
10:53 AM 30.9 °F 24.3 °F 17.1 °F 57% 30.38 in 10.0 mi NNE 6.9 mph 16.1 mph N/A   Clear
11:53 AM 32.0 °F 25.6 °F 18.0 °F 56% 30.36 in 10.0 mi North 6.9 mph - N/A   Clear
12:53 PM 34.0 °F 28.8 °F 19.0 °F 54% 30.37 in 10.0 mi Variable 5.8 mph - N/A   Partly Cloudy
1:53 PM 33.1 °F 27.7 °F 18.0 °F 54% 30.37 in 10.0 mi Variable 5.8 mph - N/A   Scattered Clouds
2:53 PM 32.0 °F 26.4 °F 17.6 °F 55% 30.39 in 10.0 mi North 5.8 mph - N/A   Scattered Clouds
3:53 PM 28.9 °F 23.9 °F 16.0 °F 58% 30.42 in 10.0 mi NNE 4.6 mph - N/A   Partly Cloudy
4:53 PM 27.0 °F - 15.1 °F 61% 30.44 in 10.0 mi Calm Calm - N/A   Clear
5:53 PM 25.0 °F - 17.1 °F 72% 30.48 in 10.0 mi Calm Calm - N/A   Clear
6:53 PM 24.8 °F - 17.6 °F 74% 30.47 in 10.0 mi Calm Calm - N/A   Clear
7:53 PM 19.9 °F - 17.1 °F 89% 30.48 in 10.0 mi Calm Calm - N/A   Clear
8:53 PM 19.4 °F - 17.6 °F 93% 30.47 in 10.0 mi Calm Calm - N/A   Clear
9:53 PM 19.9 °F - 17.1 °F 89% 30.45 in 10.0 mi Calm Calm - N/A   Clear
10:53 PM 19.0 °F - 17.1 °F 92% 30.48 in 10.0 mi Calm Calm - N/A   Clear
11:53 PM 19.0 °F - 16.0 °F 88% 30.48 in 10.0 mi Calm Calm - N/A   Clear